Location: Campavaglio
(41.1333°N, 9.2333°E)
Time: 00:01:31
(UTC+00:00)

Cosmos 1933 - Pass Details

Date: 07 June 2020
Orbit: 546 x 564 km, 82.5° (Epoch: 11 July)

Event Time Altitude Azimuth Distance (km) Brightness Sun altitude
Rises 02:25:48 0° 358° (N) 2,740 7.6 -13.2°
Reaches altitude 10° 02:28:04 10° 5° (N) 1,838 6.8 -12.9°
Maximum altitude 02:31:57 46° 79° (E) 750 4.4 -12.4°
Drops below altitude 10° 02:35:48 10° 153° (SSE) 1,815 5.8 -11.9°
Sets 02:38:01 0° 160° (SSE) 2,701 6.6 -11.6°
